Regional Weather Roundup
Issued by NWS Goodland, KS

Home | Current Version | Previous Version | Text Only | Print | Product List | Glossary Off
Versions: 1 2 3 4 5 6 7 8 9 10 11 12 13 14 15 16 17 18 19 20 21 22 23 24 25 26 27 28 29 30 31 32 33 34 35 36 37 38 39 40 41 42 43 44 45 46 47 48 49 50

000
ASUS43 KGLD 272008
RWRGLD

GOODLAND FORECAST AREA HOURLY WEATHER ROUNDUP
NATIONAL WEATHER SERVICE GOODLAND KS
200 PM MDT FRI MAR 27 2015

...OFFICIAL OBSERVATIONS...

CITY           SKY/WX    TMP DP  RH WIND       PRES   REMARKS
GOODLAND KS    MOSUNNY   66  36  32 NW15G22   30.06F
HILL CITY KS   PTSUNNY   50  32  50 SW15      30.14F
IMPERIAL NEB     N/A     67  37  33 N18G28    30.02F
MCCOOK NEB     MOSUNNY   57  36  45 S8G17     30.07F
AKRON CO       CLOUDY    63  33  32 W14       30.07F
BURLINGTON CO  SUNNY     66  33  29 NW16G24   30.09F
LIMON CO       SUNNY     64  30  27 N9G23     30.14F
$$

...UNOFFICIAL OBSERVATIONS...

CITY           SKY/WX    TMP DP  RH WIND       PRES   REMARKS
COLBY KS       MOSUNNY   64  39  39 SW9G18    30.06F
GOVE KS          N/A     56  32  40 MISG        N/A
LENORA KS        N/A     45  32  60 MISG        N/A
NORTON KS      CLOUDY    48  28  46 S10G21    30.11F
SHARON SPRINGS   N/A     67  38  34 NW7G14      N/A
TRIBUNE KS     SUNNY     64  41  42 SW14G21   30.12F
KIT CARSON CO    N/A     66  37  34 MISG        N/A
YUMA CO          N/A     66  34  30 N10G25      N/A
$$


USA.gov is the U.S. government's official web portal to all federal, state and local government web resources and services.